Casablanca, Morocco

1:33 AM WET on January 24, 2018 (GMT +0000)
Casablanca

Weather History for GMMC - January, 2018

Change the Weather History Date:

Saturday, January 13, 2018

  Actual Average (GMMN) Record (GMMN)
Temperature  
Mean Temperature 54 °F -  
Max Temperature 62 °F 62 °F 71 °F (2007)
Min Temperature 46 °F 42 °F 33 °F (2000)
Degree Days  
Heating Degree Days 11    
Growing Degree Days 4 (Base 50)    
Moisture  
Dew Point 52 °F    
Average Humidity 85    
Maximum Humidity 94    
Minimum Humidity 68    
Precipitation  
Precipitation 0.04 in 0.08 in - ()
Sea Level Pressure  
Sea Level Pressure 30.21 in    
Wind  
Wind Speed 5 mph ()    
Max Wind Speed 9 mph    
Max Gust Speed -    
Visibility 5.3 miles    
Events Rain    
Averages and records for this station are not official NWS values.
T = Trace of Precipitation, MM = Missing Value Source: Averaged Metar Reports

Daily Weather History Graph

Daily Weather History Graph

Search for Another Location

Airport or City:

Trip Planner

Search our weather history database for the weather conditions in past years. The results will help you decide how hot, cold, wet, or windy it might be!

Date:

Astronomy

Jan. 13, 2018 Rise Set
Actual Time 7:35 AM WET 5:43 PM WET
Civil Twilight 7:08 AM WET 6:10 PM WET
Nautical Twilight 6:37 AM WET 6:41 PM WET
Astronomical Twilight 6:07 AM WET 7:11 PM WET
Moon 4:27 AM WET (1/13) 3:08 PM WET (1/13)
Length of Visible Light 11h 02m
Length of Day
10h 08m
Waning Crescent, 11% of the Moon is Illuminated
Jan 13
Waning Crescent
Jan 17
New
Jan 24
First Quarter
Jan 31
Full
Feb 7
Last Quarter

Hourly Weather History & Observations

Time (WET) Temp. Windchill Dew Point Humidity Pressure Visibility Wind Dir Wind Speed Gust Speed Precip Events Conditions
6:00 AM 46.4 °F 44.3 °F 44.6 °F 93% 30.15 in - SE 4.6 mph - N/A   Clear
7:00 AM 46.4 °F 44.3 °F 44.6 °F 93% 30.18 in - SE 4.6 mph - N/A   Clear
8:00 AM 46.4 °F 44.3 °F 44.6 °F 93% 30.18 in - SSE 4.6 mph - N/A   Clear
9:00 AM 50 °F - 47 °F 87% 30.21 in 6 mi SSW 6.9 mph - -   Clear
9:00 AM 50.0 °F - 48.2 °F 94% 30.18 in - SSW 6.9 mph - N/A   Clear
10:00 AM 53.6 °F - 51.8 °F 94% 30.21 in - SSW 6.9 mph - N/A   Clear
11:00 AM 59.0 °F - 53.6 °F 82% 30.24 in - WSW 6.9 mph - N/A   Clear
12:00 PM 62 °F - 54 °F 69% 30.23 in 6 mi WSW 6.9 mph - -   Partly Cloudy
12:00 PM 62.6 °F - 55.4 °F 77% 30.21 in 6.2 mi WSW 6.9 mph - N/A   Mostly Cloudy
1:00 PM 62.6 °F - 53.6 °F 72% 30.21 in 6.2 mi WSW 6.9 mph - N/A   Mostly Cloudy
2:00 PM 62.6 °F - 53.6 °F 72% 30.21 in 6.2 mi WSW 9.2 mph - N/A   Mostly Cloudy
3:00 PM 62 °F - 54 °F 68% 30.21 in 6 mi WSW 6.9 mph - -   Mostly Cloudy
3:00 PM 62.6 °F - 53.6 °F 72% 30.21 in 6.2 mi WSW 6.9 mph - N/A   Mostly Cloudy
4:00 PM 60.8 °F - 55.4 °F 82% 30.21 in 5.0 mi West 6.9 mph - N/A Rain Rain
5:00 PM 59.0 °F - 57.2 °F 94% 30.21 in 5.0 mi West 4.6 mph - N/A Rain Rain
6:00 PM 58 °F - 56 °F 91% 30.22 in 4 mi NW 8.1 mph - - Rain Light Rain
6:00 PM 57.2 °F - 55.4 °F 94% 30.21 in 5.0 mi NW 8.1 mph - N/A Rain Rain
7:00 PM 55.4 °F - 53.6 °F 94% 30.24 in 3.7 mi NNE 4.6 mph - N/A Rain Rain
8:00 PM 55.4 °F - 53.6 °F 94% 30.24 in 3.7 mi NNE 4.6 mph - N/A Rain Rain